Hourly Weather Roundup
Issued by NWS Central Illinois

Home | Current Version | Previous Version | Text Only | Print | Product List | Glossary Off
Versions: 1 2 3 4 5 6 7 8 9 10 11 12 13 14 15 16 17 18 19 20 21 22 23 24 25 26 27 28 29 30 31 32 33 34 35 36 37 38 39 40 41 42 43 44 45 46 47 48 49 50

000
NZUS43 KILX 230410
HWRILX

Area Weather Roundup
National Weather Service Lincoln IL
1100 PM CDT MON MAY 22 2017

NOTE:  "FAIR" indicates few or no clouds below 12,000 feet, with
       no sigificant weather and/or obstructions to visibility.


CITY           SKY/WX    TMP DP  RH WIND       PRES   REMARKS
Bloomington    MOCLDY    57  55  93 S7        29.96S
Champaign      CLOUDY    59  54  83 NW3       29.97S
Danville       CLOUDY    61  51  70 CALM      29.94F
Decatur        CLOUDY    59  56  89 SE3       29.96F
Effingham      CLOUDY    60  58  92 CALM      29.97F
Flora          MOCLDY    64  56  75 CALM      29.96S
Galesburg      CLOUDY    58  55  89 S10       29.89F
Jacksonville   RAIN      58  55  91 W9        29.98S
Lacon          DRIZZLE   58  56  94 S7        29.92F
Lawrenceville  CLOUDY    64  52  64 S6        29.97F
Litchfield     PTCLDY    60  57  91 NE6       29.96F
$$


CITY           SKY/WX    TMP DP  RH WIND       PRES   REMARKS
Lincoln        LGT RAIN  60  60 100 CALM      29.97R
Macomb         CLOUDY    57  55  92 S10       29.95F
Mattoon        PTCLDY    61  51  70 S3        29.95F
Mt Carmel AP   MOCLDY    64  51  61 SE5       29.97S
Olney-Noble AP PTCLDY    61  55  80 SE5       29.96F
Paris AP       PTCLDY    58  51  77 SE3       29.97F
Peoria         LGT RAIN  58  57  97 SW9       29.95S
Pontiac        LGT RAIN  60  58  93 SW6       29.95S
Rantoul        CLOUDY    61  58  88 CALM      29.96F
Robinson       PTCLDY    60  51  71 S5        29.97F
Springfield    CLOUDY    61  60  97 CALM      29.97R
Taylorville    PTCLDY    59  57  94 SE3       29.97S
$$

...REGIONAL REPORTS...


CITY           SKY/WX    TMP DP  RH WIND       PRES   REMARKS
Chicago O`Hare CLOUDY    60  53  77 SW8       29.89F
Kankakee       DRIZZLE   60  53  79 CALM      29.95S
Moline         CLOUDY    60  53  77 SW9       29.87F
Mount Sterling LGT RAIN  56  55  97 S6        29.94F
Mount Vernon     N/A     59  56  89 CALM      29.95F
Pittsfield     RAIN      57  56  95 CALM      29.98F
Quincy         LGT RAIN  58  56  93 S5        29.94F
Rockford       PTCLDY    58  54  86 S13       29.88F
$$


CITY           SKY/WX    TMP DP  RH WIND       PRES   REMARKS
Burlington     PTCLDY    58  54  86 S10       29.89F
Cedar Rapids   PTCLDY    57  55  93 SW9       29.83F
Des Moines     CLOUDY    58  52  80 W3        29.86R
Kirksville     CLOUDY    56  54  93 VRB6      29.93S
Ottumwa        CLOUDY    56  53  90 SW6       29.87S
St Louis       CLOUDY    71  48  43 CALM      29.94F
$$


CITY           SKY/WX    TMP DP  RH WIND       PRES   REMARKS
Terre Haute    CLOUDY    59  52  77 SE3       29.97F
Evansville     CLOUDY    63  53  70 CALM      29.97F
Indianapolis   CLOUDY    60  48  64 S7        29.98F
Lafayette      CLOUDY    60  53  77 CALM      29.95F
Madison        LGT RAIN  59  56  89 S7        29.82F
Milwaukee      CLOUDY    63  53  70 SW9       29.86F
$$





USA.gov is the U.S. government's official web portal to all federal, state and local government web resources and services.